GW5877 Weather Reports


time (UTC)temp
C
wind
direction
speed
KPH
gust
KPH
rain 1hr
cm
rain 24hr
cm
rain mn
cm
humidity
%
barometer
mb
20260906203846 37 151 1.6 3.2 0.00 0.00 0.00 34 1016.0
20260906203341 37 219 8.0 9.7 0.00 0.00 0.00 34 1016.2
20260906202838 38 216 4.8 4.8 0.00 0.00 0.00 33 1016.1
20260906202337 38 162 0.0 0.0 0.00 0.00 0.00 32 1016.2
20260906201837 38 128 1.6 1.6 0.00 0.00 0.00 33 1016.3
20260906201332 38 208 3.2 4.8 0.00 0.00 0.00 35 1016.4
20260906200827 38 279 0.0 1.6 0.00 0.00 0.00 33 1016.3
20260906200323 38 161 3.2 3.2 0.00 0.00 0.00 33 1016.4
20260906195818 38 113 3.2 3.2 0.00 0.00 0.00 34 1016.6
20260906195315 38 227 0.0 0.0 0.00 0.00 0.00 33 1016.6
20260906194810 38 164 1.6 1.6 0.00 0.00 0.00 34 1016.9
20260906194306 37 153 4.8 4.8 0.00 0.00 0.00 35 1016.9
20260906193800 37 168 0.0 0.0 0.00 0.00 0.00 35 1016.7
20260906193255 37 228 0.0 0.0 0.00 0.00 0.00 35 1016.7
20260906192752 37 200 3.2 3.2 0.00 0.00 0.00 35 1016.8
20260906192251 37 254 3.2 3.2 0.00 0.00 0.00 35 1017.1
20260906191751 37 354 1.6 3.2 0.00 0.00 0.00 36 1017.1
20260906191246 37 214 0.0 0.0 0.00 0.00 0.00 37 1017.1
20260906190745 37 274 3.2 4.8 0.00 0.00 0.00 39 1017.3
20260906190240 37 147 3.2 4.8 0.00 0.00 0.00 37 1017.3
20260906185739 37 124 3.2 3.2 0.00 0.00 0.00 37 1017.5
20260906185238 36 37 0.0 1.6 0.00 0.00 0.00 38 1017.5
20260906184733 37 195 1.6 3.2 0.00 0.00 0.00 38 1017.6
20260906184228 37 99 3.2 3.2 0.00 0.00 0.00 37 1017.5
20260906183724 37 54 3.2 4.8 0.00 0.00 0.00 37 1017.7
20260906183220 37 36 1.6 1.6 0.00 0.00 0.00 37 1017.6
20260906182720 37 192 4.8 6.4 0.00 0.00 0.00 37 1017.8
20260906182216 37 248 1.6 1.6 0.00 0.00 0.00 37 1017.8
20260906181711 37 231 0.0 1.6 0.00 0.00 0.00 38 1017.9
20260906181208 37 212 1.6 1.6 0.00 0.00 0.00 37 1018.0
20260906180707 37 117 1.6 1.6 0.00 0.00 0.00 36 1018.0
20260906180202 36 119 3.2 4.8 0.00 0.00 0.00 38 1018.1
20260906175700 37 247 1.6 3.2 0.00 0.00 0.00 40 1018.4
20260906175156 37 37 3.2 4.8 0.00 0.00 0.00 38 1018.5
20260906174654 38 163 1.6 1.6 0.00 0.00 0.00 37 1018.5
20260906174149 37 151 3.2 3.2 0.00 0.00 0.00 37 1018.6
20260906173644 38 175 0.0 0.0 0.00 0.00 0.00 37 1018.8
20260906173140 37 115 4.8 6.4 0.00 0.00 0.00 38 1018.8
20260906172639 35 275 0.0 0.0 0.00 0.00 0.00 41 1019.0
20260906172135 36 235 0.0 0.0 0.00 0.00 0.00 42 1019.0
20260906171634 36 112 3.2 3.2 0.00 0.00 0.00 40 1019.1
20260906171130 35 260 1.6 3.2 0.00 0.00 0.00 41 1019.2
20260906170626 35 243 1.6 1.6 0.00 0.00 0.00 42 1019.2
20260906170125 35 231 0.0 0.0 0.00 0.00 0.00 43 1019.3
20260906165621 35 220 0.0 0.0 0.00 0.00 0.00 43 1019.5
20260906165117 35 228 1.6 1.6 0.00 0.00 0.00 42 1019.4
20260906164615 35 238 0.0 0.0 0.00 0.00 0.00 43 1019.5
20260906164111 36 237 0.0 0.0 0.00 0.00 0.00 42 1019.5
20260906163607 35 16 0.0 1.6 0.00 0.00 0.00 42 1019.4
20260906163103 35 235 1.6 3.2 0.00 0.00 0.00 43 1019.6
20260906162600 35 237 3.2 3.2 0.00 0.00 0.00 44 1019.4
20260906162055 35 260 3.2 4.8 0.00 0.00 0.00 43 1019.5
20260906161550 35 226 0.0 0.0 0.00 0.00 0.00 43 1019.5
20260906161048 34 231 0.0 0.0 0.00 0.00 0.00 46 1019.6
20260906160547 35 246 3.2 3.2 0.00 0.00 0.00 44 1019.4
20260906160046 35 318 0.0 0.0 0.00 0.00 0.00 45 1019.4
20260906155543 33 181 0.0 0.0 0.00 0.00 0.00 46 1019.3
20260906155040 34 231 0.0 0.0 0.00 0.00 0.00 47 1019.4
20260906154535 33 234 0.0 0.0 0.00 0.00 0.00 47 1019.5
20260906154034 34 209 1.6 3.2 0.00 0.00 0.00 48 1019.4
20260906153533 33 203 0.0 1.6 0.00 0.00 0.00 48 1019.3
20260906153029 33 217 0.0 1.6 0.00 0.00 0.00 50 1019.2
20260906152528 33 233 0.0 1.6 0.00 0.00 0.00 48 1019.4
20260906152027 32 229 0.0 0.0 0.00 0.00 0.00 52 1019.3
20260906151523 32 231 0.0 0.0 0.00 0.00 0.00 50 1019.4
20260906151024 32 221 0.0 0.0 0.00 0.00 0.00 51 1019.3
20260906150519 32 226 0.0 0.0 0.00 0.00 0.00 52 1019.1
20260906150014 31 228 0.0 0.0 0.00 0.00 0.00 52 1019.3
20260906145513 31 215 0.0 0.0 0.00 0.00 0.00 53 1019.1
20260906145008 32 259 3.2 4.8 0.00 0.00 0.00 51 1019.2
20260906144502 31 232 0.0 0.0 0.00 0.00 0.00 53 1019.2
20260906143957 31 235 0.0 0.0 0.00 0.00 0.00 54 1019.4
20260906143453 31 218 0.0 1.6 0.00 0.00 0.00 53 1019.2
20260906142949 31 232 0.0 0.0 0.00 0.00 0.00 53 1019.1
20260906142448 31 207 0.0 0.0 0.00 0.00 0.00 54 1019.3
20260906141944 31 232 0.0 0.0 0.00 0.00 0.00 53 1019.2
20260906141443 31 230 0.0 0.0 0.00 0.00 0.00 55 1019.1
20260906140938 31 229 0.0 1.6 0.00 0.00 0.00 55 1019.1
20260906140432 30 215 0.0 0.0 0.00 0.00 0.00 56 1019.0
20260906135930 30 235 1.6 1.6 0.00 0.00 0.00 56 1019.0
20260906135429 30 160 0.0 1.6 0.00 0.00 0.00 56 1018.9
20260906134925 29 237 0.0 0.0 0.00 0.00 0.00 59 1018.9
20260906134420 29 284 0.0 0.0 0.00 0.00 0.00 58 1018.9
20260906133915 28 240 0.0 0.0 0.00 0.00 0.00 59 1018.9
20260906133411 28 248 0.0 0.0 0.00 0.00 0.00 60 1018.7
20260906132906 27 225 0.0 0.0 0.00 0.00 0.00 60 1018.8
20260906132402 27 224 0.0 0.0 0.00 0.00 0.00 62 1018.9
20260906131857 27 232 0.0 0.0 0.00 0.00 0.00 62 1018.6
20260906131352 27 235 0.0 0.0 0.00 0.00 0.00 63 1018.6
20260906130848 26 228 0.0 0.0 0.00 0.00 0.00 65 1018.7
20260906130348 26 226 0.0 0.0 0.00 0.00 0.00 65 1018.6
20260906125847 26 223 0.0 0.0 0.00 0.00 0.00 65 1018.6
20260906125344 26 221 0.0 0.0 0.00 0.00 0.00 66 1018.7
20260906124839 26 226 0.0 0.0 0.00 0.00 0.00 66 1018.6
20260906124335 26 210 0.0 0.0 0.00 0.00 0.00 65 1018.5
20260906123834 26 221 0.0 0.0 0.00 0.00 0.00 66 1018.4
20260906123329 26 222 0.0 0.0 0.00 0.00 0.00 66 1018.5
20260906122829 26 219 0.0 0.0 0.00 0.00 0.00 66 1018.1
20260906122324 26 224 0.0 0.0 0.00 0.00 0.00 66 1018.5
20260906121821 26 224 0.0 0.0 0.00 0.00 0.00 66 1018.1
20260906121316 26 221 0.0 0.0 0.00 0.00 0.00 65 1018.1
20260906120812 26 214 0.0 0.0 0.00 0.00 0.00 66 1018.0
20260906120309 26 227 0.0 0.0 0.00 0.00 0.00 66 1017.9
20260906115805 26 226 0.0 0.0 0.00 0.00 0.00 65 1018.0
20260906115259 26 214 0.0 0.0 0.00 0.00 0.00 65 1017.8
20260906114759 26 224 0.0 0.0 0.00 0.00 0.00 65 1017.8
20260906114254 26 202 0.0 0.0 0.00 0.00 0.00 66 1017.7
20260906113749 26 225 0.0 0.0 0.00 0.00 0.00 66 1017.7
20260906113248 26 224 0.0 0.0 0.00 0.00 0.00 66 1017.8
20260906112749 26 217 0.0 0.0 0.00 0.00 0.00 66 1017.8
20260906112245 26 210 0.0 0.0 0.00 0.00 0.00 66 1017.6
20260906111744 26 219 0.0 0.0 0.00 0.00 0.00 65 1017.4
20260906111239 26 224 0.0 0.0 0.00 0.00 0.00 65 1017.5
20260906110734 26 222 0.0 0.0 0.00 0.00 0.00 65 1017.6
20260906110230 26 216 0.0 0.0 0.00 0.00 0.00 66 1017.4
20260906105728 26 212 0.0 0.0 0.00 0.00 0.00 66 1017.5
20260906105225 26 225 0.0 0.0 0.00 0.00 0.00 65 1017.6
20260906104725 26 221 0.0 0.0 0.00 0.00 0.00 65 1017.4
20260906104224 26 222 0.0 0.0 0.00 0.00 0.00 65 1017.3
20260906103721 26 227 0.0 0.0 0.00 0.00 0.00 65 1017.3
20260906103216 26 225 0.0 0.0 0.00 0.00 0.00 64 1017.3
20260906102712 26 226 0.0 0.0 0.00 0.00 0.00 64 1017.4
20260906102212 26 213 0.0 0.0 0.00 0.00 0.00 64 1017.2
20260906101712 26 224 0.0 0.0 0.00 0.00 0.00 64 1017.1
20260906101207 26 218 0.0 0.0 0.00 0.00 0.00 64 1017.0
20260906100702 26 230 0.0 0.0 0.00 0.00 0.00 63 1017.2
20260906100202 26 227 0.0 0.0 0.00 0.00 0.00 63 1017.2
20260906095657 26 215 0.0 0.0 0.00 0.00 0.00 63 1017.2
20260906095152 26 221 0.0 0.0 0.00 0.00 0.00 63 1017.1
20260906094651 27 224 0.0 0.0 0.00 0.00 0.00 62 1017.0
20260906094147 26 220 0.0 0.0 0.00 0.00 0.00 62 1017.2
20260906093643 26 227 0.0 0.0 0.00 0.00 0.00 62 1017.1
20260906093143 26 216 0.0 0.0 0.00 0.00 0.00 63 1017.0
20260906092638 26 224 0.0 0.0 0.00 0.00 0.00 63 1017.2
20260906092133 27 215 0.0 0.0 0.00 0.00 0.00 63 1017.1
20260906091629 27 225 0.0 0.0 0.00 0.00 0.00 62 1017.3
20260906091125 27 199 0.0 0.0 0.00 0.00 0.00 63 1017.2
20260906090620 27 224 0.0 0.0 0.00 0.00 0.00 61 1017.1
20260906090120 27 224 0.0 0.0 0.00 0.00 0.00 61 1017.1
20260906085619 27 222 0.0 0.0 0.00 0.00 0.00 61 1016.9
20260906085114 27 217 0.0 0.0 0.00 0.00 0.00 60 1017.0
20260906084609 27 223 0.0 0.0 0.00 0.00 0.00 60 1017.1
20260906084108 27 222 0.0 0.0 0.00 0.00 0.00 60 1017.1
20260906083604 27 222 0.0 0.0 0.00 0.00 0.00 59 1017.0
20260906083103 27 220 0.0 0.0 0.00 0.00 0.00 59 1017.0
20260906082558 27 218 0.0 0.0 0.00 0.00 0.00 58 1016.9
20260906082053 27 218 0.0 0.0 0.00 0.00 0.00 59 1017.0
20260906081549 27 221 0.0 0.0 0.00 0.00 0.00 59 1016.9
20260906081039 27 224 0.0 0.0 0.00 0.00 0.00 58 1016.9
20260906080536 27 227 0.0 0.0 0.00 0.00 0.00 59 1016.8
20260906080031 27 224 0.0 0.0 0.00 0.00 0.00 59 1016.8
20260906075526 27 219 0.0 0.0 0.00 0.00 0.00 59 1016.8
20260906075020 27 215 0.0 0.0 0.00 0.00 0.00 59 1016.8
20260906074515 27 220 0.0 0.0 0.00 0.00 0.00 59 1017.0
20260906074013 27 220 0.0 0.0 0.00 0.00 0.00 59 1016.8
20260906073509 27 221 0.0 0.0 0.00 0.00 0.00 59 1016.9
20260906073005 27 223 0.0 0.0 0.00 0.00 0.00 58 1017.1
20260906072459 27 223 0.0 0.0 0.00 0.00 0.00 59 1017.1
20260906071955 28 218 0.0 0.0 0.00 0.00 0.00 59 1017.0
20260906071451 28 213 0.0 0.0 0.00 0.00 0.00 58 1017.0
20260906070946 28 225 0.0 0.0 0.00 0.00 0.00 58 1017.1
20260906070442 28 225 0.0 0.0 0.00 0.00 0.00 57 1017.1
20260906065938 28 225 0.0 0.0 0.00 0.00 0.00 56 1017.1
20260906065432 28 225 0.0 0.0 0.00 0.00 0.00 56 1016.9
20260906064928 28 224 0.0 0.0 0.00 0.00 0.00 56 1017.0
20260906064424 28 226 0.0 0.0 0.00 0.00 0.00 55 1017.1
20260906063924 28 226 0.0 0.0 0.00 0.00 0.00 55 1016.9
20260906063419 28 220 0.0 0.0 0.00 0.00 0.00 55 1017.0
20260906062915 28 216 0.0 0.0 0.00 0.00 0.00 54 1016.8
20260906062414 28 229 0.0 0.0 0.00 0.00 0.00 54 1017.0
20260906061909 28 221 0.0 0.0 0.00 0.00 0.00 54 1017.0
20260906061406 29 222 0.0 0.0 0.00 0.00 0.00 54 1017.1
20260906060859 29 222 0.0 0.0 0.00 0.00 0.00 54 1017.1
20260906060357 29 207 0.0 0.0 0.00 0.00 0.00 53 1017.1
20260906055853 29 205 0.0 0.0 0.00 0.00 0.00 53 1017.0
20260906055349 28 196 0.0 0.0 0.00 0.00 0.00 54 1017.0
20260906054844 29 202 0.0 0.0 0.00 0.00 0.00 53 1017.0
20260906054338 29 214 0.0 0.0 0.00 0.00 0.00 53 1016.9
20260906053835 29 215 0.0 0.0 0.00 0.00 0.00 53 1017.1
20260906053330 29 213 0.0 0.0 0.00 0.00 0.00 53 1017.0
20260906052826 29 223 0.0 0.0 0.00 0.00 0.00 53 1016.9
20260906052322 29 223 0.0 0.0 0.00 0.00 0.00 53 1016.8
20260906051819 29 221 0.0 0.0 0.00 0.00 0.00 53 1016.7
20260906051318 29 214 0.0 0.0 0.00 0.00 0.00 54 1016.8
20260906050814 29 215 0.0 0.0 0.00 0.00 0.00 54 1016.7
20260906050309 29 224 0.0 0.0 0.00 0.00 0.00 54 1016.6
20260906045808 29 226 0.0 0.0 0.00 0.00 0.00 53 1016.8
20260906045305 29 224 0.0 0.0 0.00 0.00 0.00 53 1016.7
20260906044759 30 224 0.0 0.0 0.00 0.00 0.00 53 1016.6
20260906044253 30 224 0.0 0.0 0.00 0.00 0.00 53 1016.8
20260906043749 30 224 0.0 0.0 0.00 0.00 0.00 53 1016.6
20260906043245 30 225 0.0 0.0 0.00 0.00 0.00 53 1016.6
20260906042744 30 225 0.0 0.0 0.00 0.00 0.00 52 1016.7
20260906042244 30 217 0.0 0.0 0.00 0.00 0.00 52 1016.6
20260906041739 30 226 0.0 0.0 0.00 0.00 0.00 51 1016.8
20260906041234 30 226 0.0 0.0 0.00 0.00 0.00 51 1016.8
20260906040730 30 226 0.0 0.0 0.00 0.00 0.00 50 1016.9
20260906040225 30 226 0.0 0.0 0.00 0.00 0.00 50 1016.7
20260906035720 30 226 0.0 0.0 0.00 0.00 0.00 50 1016.8
20260906035216 31 225 0.0 0.0 0.00 0.00 0.00 49 1016.9
20260906034716 31 226 0.0 0.0 0.00 0.00 0.00 48 1016.8
20260906034211 31 226 0.0 0.0 0.00 0.00 0.00 48 1016.7
20260906033706 31 223 0.0 0.0 0.00 0.00 0.00 48 1016.9
20260906033201 31 220 0.0 0.0 0.00 0.00 0.00 48 1016.7
20260906032658 31 221 0.0 0.0 0.00 0.00 0.00 48 1016.6
20260906032158 31 219 0.0 0.0 0.00 0.00 0.00 47 1016.6
20260906031653 32 219 0.0 0.0 0.00 0.00 0.00 47 1016.6
20260906031148 32 216 0.0 0.0 0.00 0.00 0.00 46 1016.7
20260906030648 32 219 0.0 0.0 0.00 0.00 0.00 46 1016.6
20260906030143 32 217 0.0 0.0 0.00 0.00 0.00 45 1016.6
20260906025642 32 221 0.0 0.0 0.00 0.00 0.00 45 1016.6
20260906025142 32 220 0.0 0.0 0.00 0.00 0.00 45 1016.7
20260906024636 32 216 0.0 0.0 0.00 0.00 0.00 45 1016.5
20260906024130 32 215 0.0 0.0 0.00 0.00 0.00 45 1016.5
20260906023627 32 202 0.0 0.0 0.00 0.00 0.00 45 1016.5
20260906023126 32 211 0.0 0.0 0.00 0.00 0.00 46 1016.4
20260906022622 32 204 0.0 0.0 0.00 0.00 0.00 45 1016.2
20260906022117 32 210 0.0 0.0 0.00 0.00 0.00 46 1016.2
20260906021613 32 219 0.0 0.0 0.00 0.00 0.00 46 1016.3
20260906021111 32 224 0.0 0.0 0.00 0.00 0.00 46 1016.1
20260906020611 32 221 0.0 0.0 0.00 0.00 0.00 45 1016.0
20260906020106 32 206 0.0 0.0 0.00 0.00 0.00 44 1015.9
20260906015605 32 212 0.0 0.0 0.00 0.00 0.00 45 1016.1
20260906015105 32 225 0.0 0.0 0.00 0.00 0.00 45 1016.1
20260906014559 33 225 0.0 0.0 0.00 0.00 0.00 45 1016.1
20260906014056 33 225 0.0 0.0 0.00 0.00 0.00 43 1015.7
20260906013551 33 227 0.0 0.0 0.00 0.00 0.00 43 1015.9
20260906013046 33 208 0.0 0.0 0.00 0.00 0.00 42 1015.5
20260906012541 33 222 0.0 0.0 0.00 0.00 0.00 41 1015.6
20260906012041 34 206 1.6 1.6 0.00 0.00 0.00 41 1015.6
20260906011537 34 189 0.0 0.0 0.00 0.00 0.00 40 1015.7
20260906011036 34 219 0.0 0.0 0.00 0.00 0.00 40 1015.6
20260906010532 35 209 1.6 1.6 0.00 0.00 0.00 39 1015.5
20260906010028 35 209 1.6 1.6 0.00 0.00 0.00 39 1015.5
20260906005527 35 115 1.6 3.2 0.00 0.00 0.00 38 1015.6
20260906005026 35 144 1.6 3.2 0.00 0.00 0.00 38 1015.5
20260906004526 35 232 0.0 0.0 0.00 0.00 0.00 38 1015.3
20260906004022 35 75 0.0 1.6 0.00 0.00 0.00 37 1015.4
20260906003517 36 117 3.2 4.8 0.00 0.00 0.00 37 1015.5
20260906003013 36 119 1.6 3.2 0.00 0.00 0.00 36 1015.4
20260906002513 36 163 3.2 4.8 0.00 0.00 0.00 36 1015.1
20260906002007 36 86 3.2 6.4 0.00 0.00 0.00 36 1015.3
20260906001503 36 146 3.2 3.2 0.00 0.00 0.00 36 1015.1
20260906000957 36 145 1.6 1.6 0.00 0.00 0.00 35 1015.1
20260906000455 36 103 6.4 9.7 0.00 0.00 0.00 35 1015.0
20260905235948 36 152 6.4 6.4 0.00 0.00 0.00 35 1015.0
20260905235447 37 131 1.6 1.6 0.00 0.00 0.00 35 1015.0
20260905234942 37 227 3.2 4.8 0.00 0.00 0.00 35 1015.1
20260905234433 37 66 3.2 3.2 0.00 0.00 0.00 35 1014.8
20260905233932 37 163 0.0 0.0 0.00 0.00 0.00 35 1014.9
20260905233428 37 95 3.2 4.8 0.00 0.00 0.00 34 1014.8
20260905232926 37 168 0.0 1.6 0.00 0.00 0.00 35 1014.8
20260905232423 37 175 3.2 3.2 0.00 0.00 0.00 35 1014.7
20260905231918 37 131 1.6 1.6 0.00 0.00 0.00 35 1014.8
20260905231414 37 83 3.2 3.2 0.00 0.00 0.00 34 1014.9
20260905230910 37 154 1.6 1.6 0.00 0.00 0.00 34 1014.9
20260905230409 37 148 1.6 1.6 0.00 0.00 0.00 34 1014.8
20260905225907 37 239 1.6 1.6 0.00 0.00 0.00 34 1014.8
20260905225402 37 137 3.2 3.2 0.00 0.00 0.00 34 1014.6
20260905224857 37 96 3.2 3.2 0.00 0.00 0.00 34 1014.9
20260905224354 37 197 0.0 0.0 0.00 0.00 0.00 34 1014.8
20260905223853 38 142 3.2 3.2 0.00 0.00 0.00 33 1014.7
20260905223352 38 67 1.6 1.6 0.00 0.00 0.00 34 1014.7
20260905222851 38 185 0.0 1.6 0.00 0.00 0.00 33 1014.8
20260905222350 38 185 3.2 4.8 0.00 0.00 0.00 33 1014.6
20260905221846 38 245 3.2 3.2 0.00 0.00 0.00 32 1014.8
20260905221343 37 240 3.2 3.2 0.00 0.00 0.00 34 1014.8
20260905220838 37 138 3.2 3.2 0.00 0.00 0.00 33 1014.8
20260905220335 38 91 3.2 4.8 0.00 0.00 0.00 33 1014.8
20260905215834 38 264 1.6 1.6 0.00 0.00 0.00 33 1014.9
20260905215330 38 208 0.0 1.6 0.00 0.00 0.00 33 1014.9
20260905214826 38 167 0.0 1.6 0.00 0.00 0.00 34 1014.9
20260905214321 38 202 1.6 1.6 0.00 0.00 0.00 34 1015.1
20260905213816 37 184 3.2 4.8 0.00 0.00 0.00 33 1015.3
20260905213312 37 235 0.0 1.6 0.00 0.00 0.00 33 1015.4
20260905212812 37 227 0.0 0.0 0.00 0.00 0.00 34 1015.3
20260905212313 37 142 1.6 3.2 0.00 0.00 0.00 34 1015.5
20260905211813 37 123 4.8 6.4 0.00 0.00 0.00 33 1015.5
20260905211308 37 214 1.6 1.6 0.00 0.00 0.00 34 1015.5
20260905210804 37 163 3.2 4.8 0.00 0.00 0.00 34 1015.6
20260905210304 37 149 1.6 3.2 0.00 0.00 0.00 35 1015.7
20260905205803 38 210 1.6 3.2 0.00 0.00 0.00 34 1015.9
20260905205257 37 168 3.2 4.8 0.00 0.00 0.00 34 1015.8
20260905204756 37 99 3.2 4.8 0.00 0.00 0.00 35 1015.8
20260905204253 37 85 3.2 4.8 0.00 0.00 0.00 34 1015.9